This is the latest recevied weather packets stored in our database for station/object 9M8ZAL-13. If no packets are shown the sender has not sent any weather packets the latest 10 day(s).
| Time | Temp. | Humidity | Pressure | Rain* | Wind** | Luminosity | Snow |
|---|---|---|---|---|---|---|---|
| 1777715609 | 30° C | - | 1005.4 hPa | - | - | 1002 W/m² | - |
| 1777715010 | 30° C | - | 1005.5 hPa | - | - | 1002 W/m² | - |
| 1777714410 | 29.44° C | - | 1005.6 hPa | - | - | 1003 W/m² | - |
| 1777713809 | 29.44° C | - | 1005.7 hPa | - | - | 1002 W/m² | - |
| 1777713209 | 30° C | - | 1005.8 hPa | - | - | 1002 W/m² | - |
| 1777712609 | 30° C | - | 1005.5 hPa | - | - | 1003 W/m² | - |
| 1777712009 | 30° C | - | 1005.7 hPa | - | - | 1003 W/m² | - |
| 1777711409 | 30° C | - | 1005.8 hPa | - | - | 1002 W/m² | - |
| 1777710809 | 30° C | - | 1005.9 hPa | - | - | 1002 W/m² | - |
| 1777710209 | 29.44° C | - | 1005.7 hPa | - | - | 1003 W/m² | - |
| 1777709609 | 29.44° C | - | 1005.5 hPa | - | - | 1002 W/m² | - |
| 1777709009 | 29.44° C | - | 1005.5 hPa | - | - | 1002 W/m² | - |
| 1777708409 | 30° C | - | 1005.7 hPa | - | - | 1001 W/m² | - |
| 1777707809 | 30.56° C | - | 1005.8 hPa | - | - | 1001 W/m² | - |
| 1777707209 | 30.56° C | - | 1005.9 hPa | - | - | 1001 W/m² | - |
| 1777706608 | 31.11° C | - | 1005.8 hPa | - | - | 1001 W/m² | - |
| 1777706008 | 31.67° C | - | 1005.9 hPa | - | - | 1001 W/m² | - |
| 1777705408 | 32.78° C | - | 1005.8 hPa | - | - | 1004 W/m² | - |
| 1777704810 | 32.78° C | - | 1005.4 hPa | - | - | 1005 W/m² | - |
| 1777704209 | 33.33° C | - | 1005.7 hPa | - | - | 1005 W/m² | - |
| 1777703608 | 32.78° C | - | 1005.8 hPa | - | - | 1005 W/m² | - |
| 1777703009 | 33.89° C | - | 1006 hPa | - | - | 1006 W/m² | - |
| 1777702408 | 33.89° C | - | 1006.2 hPa | - | - | 1006 W/m² | - |
| 1777701809 | 33.89° C | - | 1006.4 hPa | - | - | 1006 W/m² | - |
| 1777701208 | 33.89° C | - | 1006.6 hPa | - | - | 1007 W/m² | - |
* Rain since midnight (hover to see other rain measurements)
** Current wind speed in m/s (hover to see current wind gust speed)